Terug naar catalogus

ATLAS 2A CENTAUR R/B

ActiefHEO
NORAD 25502·ROCKET BODY·🇺🇸 United States

Gelanceerd Oct 20, 1998 vanaf Cape Canaveral Space Force Station

Loading…

Volgende Passages (komende 24 uur)

TLE

VersSource: Space-Track

Epoch: Sep 13, 2026, 22:25 UTC

1 25502U 98058B   26256.93465307  .00007887  00000-0  11473-2 0  9990
2 25502  26.9840 143.1201 5650320 192.5673 143.5269  4.58873107397597

Volg ATLAS 2A CENTAUR R/B in realtime met AllMySat

Download on the App Store